Regional Weather Roundup
Issued by NWS Lake Charles, LA

Home | Current Version | Previous Version | Text Only | Print | Product List | Glossary On
Versions: 1 2 3 4 5 6 7 8 9 10 11 12 13 14 15 16 17 18 19 20 21 22 23 24 25 26 27 28 29 30 31 32 33 34 35 36 37 38 39 40 41 42 43 44 45 46
000
ASUS44 KLCH 260910
RWRLCH
RWRLCH
REGIONAL WEATHER ROUNDUP
NATIONAL WEATHER SERVICE LAKE CHARLES LA
300 AM CST FRI DEC 26 2014

Note: "fair" indicates few or no clouds below 12,000 feet with no
significant weather and/or obstructions to visibility.


ACROSS SOUTHEAST TEXAS

CITY           SKY/WX    TMP DP  RH WIND       PRES   REMARKS
BEAUMONT       CLOUDY    62  53  72 SE15G23   30.06F
BEAUMONT CITY  CLOUDY    59  54  83 SE8       30.06F
ORANGE         CLOUDY    59  54  83 SE8       30.09F
JASPER         MOCLDY    50  48  92 E6        30.10R
$$

ACROSS CENTRAL LOUISIANA

CITY           SKY/WX    TMP DP  RH WIND       PRES   REMARKS
LEESVILLE      MOCLDY    47  44  88 SE8       30.10S
FULLERTON        N/A     50  43  77 SE3       30.10R
ALEXANDRIA INT MOCLDY    43  40  89 SE6       30.13S
ESLER FIELD    MOCLDY    41  38  89 CALM      30.15S
DERIDDER         N/A     49  45  87 CALM      30.12S
OAKDALE        CLOUDY    46  43  91 CALM      30.14S
OPELOUSAS      CLOUDY    46  42  84 E5        30.14F
$$

ACROSS SOUTHWEST AND SOUTH CENTRAL LOUISIANA

CITY           SKY/WX    TMP DP  RH WIND       PRES   REMARKS
SULPHUR        CLOUDY    55  50  85 E7        30.10S
LAKE CHARLES   CLOUDY    51  48  89 E10       30.10S
CHENNAULT INT  CLOUDY    50  47  88 E9        30.11S
CAMERON PHI      N/A     61  54  77 S10       30.11F
DEQUINCY       PTSUNNY   51  49  93 E5        30.10S
JENNINGS         N/A     48  46  91 E7        30.12S
LAFAYETTE      CLOUDY    48  43  82 E3        30.14F
NEW IBERIA     CLOUDY    49  45  86 E6        30.14F
ABBEVILLE        N/A     47  45  91 CALM      30.13F
PATTERSON      CLOUDY    48  46  93 E6        30.15F
SALT POINT       N/A     62  48  60 E3        30.12F
$$

SELECTED SITES ACROSS THE REGION

CITY           SKY/WX    TMP DP  RH WIND       PRES   REMARKS
HOUSTON BUSH   CLOUDY    59  53  80 CALM      30.03S
HOUSTON HOBBY  CLOUDY    61  55  81 S6        30.02F
GALVESTON      CLOUDY    64  58  80 S16       30.05S
COLLEGE STAT   CLOUDY    58  50  75 S14       30.00S
CONROE         CLOUDY    53  49  86 SE3       30.04S
HUNTSVILLE     CLOUDY    57  49  74 SE6       30.01F
LUFKIN         CLOUDY    51  47  86 SE7       30.06S
SHREVEPORT     CLOUDY    47  43  86 SE8       30.09R
MONROE         MOCLDY    44  38  79 SE5       30.17R
NATCHEZ MS       N/A     43  37  81 SE5       30.17S
BATON ROUGE    CLOUDY    44  39  82 CALM      30.17R
N.O. INTL ARPT PTCLDY    42  39  89 CALM      30.17F
SLIDELL        PTCLDY    39  36  89 CALM      30.18F
$$

MARINE REPORTS

STATION/POSITION TIME  TEMP    WIND        PRES    VSBY  WAVE
                       AIR SEA DIR/SP/G                  HT/PER
                 (UTC) (F)     (DEG/KT/KT) (MB)    (MI)  (FT/S)
BUOY 30 S HIGH I 0900   65 60  160/ 16/ 17 1016.8F         6/ 6
SEA RIM ST PARK  0900   61     140/  9/ 11 1018.4F
PORT ARTHUR      0900      58  140/  8/ 11 1018.2F
SABINE PASS N    0900   62 60  160/ 10/ 13 1018.0F
TEXAS POINT      NOT AVBL
CALCASIEU PASS   0900   61 58  170/ 12/ 16   N/A
LK CHARLES BEACH 0900   52 56              1019.4R
MARSH ISLAND     NOT AVBL
FRESH WATER LOCK 0900   60 58  120/  7/  9 1019.7R
AMERADA PASS     0900   51 50  100/  6/  8 1020.2S
$$


USA.gov is the U.S. government's official web portal to all federal, state and local government web resources and services.